Time,TemperatureF,DewpointF,PressureIn,WindDirection,WindDirectionDegrees,WindSpeedMPH,WindSpeedGustMPH,Humidity,HourlyPrecipIn,Conditions,Clouds,dailyrainin,SoftwareType,DateUTC
2013-12-01 00:00:00,45.6,45.0,30.20,SSE,157,0.0,0.0,97,0.00,,,0.00,Rainwise IP-100,2013-12-01 06:00:00,
2013-12-01 00:05:00,45.6,45.0,30.20,SSE,157,0.0,0.0,97,0.00,,,0.00,Rainwise IP-100,2013-12-01 06:05:00,
2013-12-01 00:10:00,46.0,45.0,30.20,SSW,202,0.0,0.0,97,0.00,,,0.00,Rainwise IP-100,2013-12-01 06:10:00,
2013-12-01 00:15:00,47.4,47.0,30.20,SW,225,1.2,2.0,97,0.00,,,0.00,Rainwise IP-100,2013-12-01 06:15:00,
2013-12-01 00:20:00,48.5,48.0,30.20,SW,225,0.0,1.0,98,0.00,,,0.00,Rainwise IP-100,2013-12-01 06:20:00,
2013-12-01 00:25:00,48.8,48.0,30.20,SW,225,0.0,0.0,98,0.00,,,0.00,Rainwise IP-100,2013-12-01 06:25:00,
2013-12-01 00:30:00,48.7,48.0,30.20,SW,225,0.0,0.0,98,0.00,,,0.00,Rainwise IP-100,2013-12-01 06:30:00,
2013-12-01 00:35:00,48.3,47.0,30.19,SW,225,0.0,0.0,98,0.00,,,0.00,Rainwise IP-100,2013-12-01 06:35:00,
2013-12-01 00:40:00,47.9,47.0,30.19,SW,225,0.0,0.0,98,0.00,,,0.00,Rainwise IP-100,2013-12-01 06:40:00,
2013-12-01 00:45:00,47.8,47.0,30.19,SW,225,0.0,0.0,98,0.00,,,0.00,Rainwise IP-100,2013-12-01 06:45:00,
2013-12-01 00:50:00,47.6,47.0,30.19,SW,225,0.0,0.0,98,0.00,,,0.00,Rainwise IP-100,2013-12-01 06:50:00,
2013-12-01 00:55:00,47.8,47.0,30.19,SW,225,0.0,0.0,98,0.00,,,0.00,Rainwise IP-100,2013-12-01 06:55:00,
2013-12-01 01:00:00,48.4,47.0,30.19,SW,225,0.0,0.0,98,0.00,,,0.00,Rainwise IP-100,2013-12-01 07:00:00,
2013-12-01 01:05:00,48.6,49.0,30.18,SW,225,0.0,0.0,99,0.00,,,0.00,Rainwise IP-100,2013-12-01 07:05:00,
2013-12-01 01:10:00,48.5,49.0,30.18,SW,225,0.0,0.0,99,0.00,,,0.00,Rainwise IP-100,2013-12-01 07:10:00,
2013-12-01 01:15:00,48.4,48.0,30.20,SW,225,0.0,1.0,99,0.00,,,0.00,Rainwise IP-100,2013-12-01 07:15:00,
2013-12-01 01:20:00,48.6,49.0,30.20,SW,225,0.0,0.0,99,0.00,,,0.00,Rainwise IP-100,2013-12-01 07:20:00,
2013-12-01 01:25:00,48.6,49.0,30.19,SW,225,0.0,0.0,99,0.00,,,0.00,Rainwise IP-100,2013-12-01 07:25:00,
2013-12-01 01:30:00,48.4,48.0,30.19,SW,225,0.0,0.0,99,0.00,,,0.00,Rainwise IP-100,2013-12-01 07:30:00,
2013-12-01 01:35:00,47.9,48.0,30.19,SW,225,0.0,0.0,99,0.00,,,0.00,Rainwise IP-100,2013-12-01 07:35:00,
2013-12-01 01:40:00,47.3,47.0,30.18,SW,225,0.0,0.0,99,0.00,,,0.00,Rainwise IP-100,2013-12-01 07:40:00,
2013-12-01 01:45:00,47.5,47.0,30.18,SW,225,0.0,0.0,99,0.00,,,0.00,Rainwise IP-100,2013-12-01 07:45:00,
2013-12-01 01:50:00,48.3,48.0,30.18,SW,225,0.0,0.0,99,0.00,,,0.00,Rainwise IP-100,2013-12-01 07:50:00,
2013-12-01 01:55:00,48.7,49.0,30.18,SW,225,0.0,0.0,99,0.00,,,0.00,Rainwise IP-100,2013-12-01 07:55:00,
2013-12-01 02:00:00,48.9,49.0,30.18,SSW,202,1.6,0.0,99,0.00,,,0.00,Rainwise IP-100,2013-12-01 08:00:00,
2013-12-01 02:05:00,49.1,49.0,30.18,SSE,157,4.0,4.0,99,0.00,,,0.00,Rainwise IP-100,2013-12-01 08:05:00,
2013-12-01 02:10:00,49.4,49.0,30.18,SSE,157,0.0,4.0,99,0.00,,,0.00,Rainwise IP-100,2013-12-01 08:10:00,
2013-12-01 02:15:00,49.6,50.0,30.18,SSE,157,2.1,3.0,99,0.00,,,0.00,Rainwise IP-100,2013-12-01 08:15:00,
2013-12-01 02:20:00,49.7,50.0,30.17,SSE,157,2.6,4.0,99,0.00,,,0.00,Rainwise IP-100,2013-12-01 08:20:00,
2013-12-01 02:25:00,49.8,50.0,30.18,SSE,157,1.9,3.0,99,0.00,,,0.00,Rainwise IP-100,2013-12-01 08:25:00,
2013-12-01 02:30:00,49.8,50.0,30.18,SSE,157,0.0,3.0,99,0.00,,,0.00,Rainwise IP-100,2013-12-01 08:30:00,
2013-12-01 02:35:00,49.9,50.0,30.18,SSE,157,0.0,1.0,99,0.00,,,0.00,Rainwise IP-100,2013-12-01 08:35:00,
2013-12-01 02:40:00,50.1,50.0,30.17,SSE,157,0.0,2.0,99,0.00,,,0.00,Rainwise IP-100,2013-12-01 08:40:00,
2013-12-01 02:45:00,50.3,50.0,30.17,South,180,0.0,3.0,99,0.00,,,0.00,Rainwise IP-100,2013-12-01 08:45:00,
2013-12-01 02:50:00,50.6,50.0,30.17,SSE,157,1.9,4.0,99,0.00,,,0.00,Rainwise IP-100,2013-12-01 08:50:00,
2013-12-01 02:55:00,51.0,51.0,30.17,SSW,202,2.3,6.0,99,0.00,,,0.00,Rainwise IP-100,2013-12-01 08:55:00,
2013-12-01 03:00:00,51.5,52.0,30.17,South,180,2.1,4.0,99,0.00,,,0.00,Rainwise IP-100,2013-12-01 09:00:00,
2013-12-01 03:01:00,51.6,52.0,30.17,South,180,2.6,4.0,99,0.00,,,0.00,Rainwise IP-100,2013-12-01 09:01:00,
2013-12-01 03:06:00,52.0,52.0,30.17,SSE,157,0.0,3.0,99,0.00,,,0.00,Rainwise IP-100,2013-12-01 09:06:00,
2013-12-01 03:11:00,52.1,52.0,30.17,SSE,157,0.0,2.0,99,0.00,,,0.00,Rainwise IP-100,2013-12-01 09:11:00,
2013-12-01 03:16:00,52.0,52.0,30.17,SSE,157,0.0,1.0,99,0.00,,,0.00,Rainwise IP-100,2013-12-01 09:16:00,
2013-12-01 03:21:00,51.9,52.0,30.17,SSE,157,0.0,0.0,99,0.00,,,0.00,Rainwise IP-100,2013-12-01 09:21:00,
2013-12-01 03:26:00,51.7,51.0,30.17,SSE,157,0.0,0.0,98,0.00,,,0.00,Rainwise IP-100,2013-12-01 09:26:00,
2013-12-01 03:31:00,51.5,51.0,30.18,SSE,157,0.0,0.0,98,0.00,,,0.00,Rainwise IP-100,2013-12-01 09:31:00,
2013-12-01 03:36:00,51.7,51.0,30.18,SSE,157,0.0,0.0,98,0.00,,,0.00,Rainwise IP-100,2013-12-01 09:36:00,
2013-12-01 03:41:00,51.8,52.0,30.17,SSE,157,0.0,0.0,99,0.00,,,0.00,Rainwise IP-100,2013-12-01 09:41:00,
2013-12-01 03:46:00,51.8,52.0,30.17,SSE,157,0.0,0.0,99,0.00,,,0.00,Rainwise IP-100,2013-12-01 09:46:00,
2013-12-01 03:51:00,51.8,52.0,30.17,SSE,157,0.0,0.0,99,0.00,,,0.00,Rainwise IP-100,2013-12-01 09:51:00,
2013-12-01 03:56:00,51.9,52.0,30.16,SSE,157,0.0,0.0,99,0.00,,,0.00,Rainwise IP-100,2013-12-01 09:56:00,
2013-12-01 04:01:00,51.6,52.0,30.15,SSE,157,0.0,0.0,99,0.00,,,0.00,Rainwise IP-100,2013-12-01 10:01:00,
2013-12-01 04:06:00,51.2,51.0,30.15,SSE,157,0.0,0.0,99,0.00,,,0.00,Rainwise IP-100,2013-12-01 10:06:00,
2013-12-01 04:11:00,50.9,50.0,30.16,SSE,157,0.0,0.0,98,0.00,,,0.00,Rainwise IP-100,2013-12-01 10:11:00,
2013-12-01 04:16:00,50.7,50.0,30.17,SSE,157,0.0,0.0,98,0.00,,,0.00,Rainwise IP-100,2013-12-01 10:16:00,
2013-12-01 04:21:00,50.7,50.0,30.16,SSE,157,0.0,0.0,98,0.00,,,0.00,Rainwise IP-100,2013-12-01 10:21:00,
2013-12-01 04:26:00,50.8,50.0,30.17,SSE,157,0.0,0.0,99,0.00,,,0.00,Rainwise IP-100,2013-12-01 10:26:00,
2013-12-01 04:31:00,51.1,51.0,30.17,SSE,157,0.0,0.0,99,0.00,,,0.00,Rainwise IP-100,2013-12-01 10:31:00,
2013-12-01 04:36:00,51.0,51.0,30.17,SSE,157,0.0,0.0,99,0.00,,,0.00,Rainwise IP-100,2013-12-01 10:36:00,
2013-12-01 04:41:00,50.5,50.0,30.16,SSE,157,0.0,0.0,99,0.00,,,0.00,Rainwise IP-100,2013-12-01 10:41:00,
2013-12-01 04:46:00,50.1,50.0,30.17,SSE,157,0.0,0.0,99,0.00,,,0.00,Rainwise IP-100,2013-12-01 10:46:00,
2013-12-01 04:51:00,50.1,50.0,30.16,SSE,157,0.0,0.0,99,0.00,,,0.00,Rainwise IP-100,2013-12-01 10:51:00,
2013-12-01 04:56:00,50.4,50.0,30.16,SSW,202,1.4,1.4,99,0.00,,,0.00,Rainwise IP-100,2013-12-01 10:56:00,
2013-12-01 05:01:00,50.8,50.0,30.16,SSW,202,0.0,1.0,99,0.00,,,0.00,Rainwise IP-100,2013-12-01 11:01:00,
2013-12-01 05:06:00,51.3,51.0,30.16,SSW,202,0.0,1.0,99,0.00,,,0.00,Rainwise IP-100,2013-12-01 11:06:00,
2013-12-01 05:11:00,51.3,51.0,30.15,SSW,202,0.0,1.0,99,0.00,,,0.00,Rainwise IP-100,2013-12-01 11:11:00,
2013-12-01 05:16:00,51.0,51.0,30.14,SE,135,2.6,3.0,99,0.00,,,0.00,Rainwise IP-100,2013-12-01 11:16:00,
2013-12-01 05:21:00,50.8,50.0,30.15,SE,135,0.0,3.0,99,0.00,,,0.00,Rainwise IP-100,2013-12-01 11:21:00,
2013-12-01 05:26:00,50.6,50.0,30.14,SE,135,0.0,1.0,99,0.00,,,0.00,Rainwise IP-100,2013-12-01 11:26:00,
2013-12-01 05:31:00,50.4,50.0,30.14,SE,135,0.0,1.0,99,0.00,,,0.00,Rainwise IP-100,2013-12-01 11:31:00,
2013-12-01 05:36:00,50.3,50.0,30.14,SE,135,1.4,1.4,99,0.00,,,0.00,Rainwise IP-100,2013-12-01 11:36:00,
2013-12-01 05:41:00,50.3,50.0,30.14,SE,135,0.0,1.0,99,0.00,,,0.00,Rainwise IP-100,2013-12-01 11:41:00,
2013-12-01 05:46:00,50.3,50.0,30.14,SE,135,0.0,0.0,99,0.00,,,0.00,Rainwise IP-100,2013-12-01 11:46:00,
2013-12-01 05:51:00,50.2,50.0,30.15,SE,135,0.0,1.0,99,0.00,,,0.00,Rainwise IP-100,2013-12-01 11:51:00,
2013-12-01 05:56:00,50.3,50.0,30.15,SE,135,0.0,0.0,99,0.00,,,0.00,Rainwise IP-100,2013-12-01 11:56:00,
2013-12-01 06:01:00,50.3,50.0,30.15,SE,135,0.0,0.0,99,0.00,,,0.00,Rainwise IP-100,2013-12-01 12:01:00,
2013-12-01 06:06:00,50.1,50.0,30.15,SE,135,0.0,0.0,99,0.00,,,0.00,Rainwise IP-100,2013-12-01 12:06:00,
2013-12-01 06:11:00,50.0,50.0,30.16,SE,135,0.0,0.0,99,0.00,,,0.00,Rainwise IP-100,2013-12-01 12:11:00,
2013-12-01 06:16:00,50.0,50.0,30.15,SE,135,0.0,0.0,99,0.00,,,0.00,Rainwise IP-100,2013-12-01 12:16:00,
2013-12-01 06:21:00,49.7,50.0,30.15,SE,135,0.0,0.0,99,0.00,,,0.00,Rainwise IP-100,2013-12-01 12:21:00,
2013-12-01 06:26:00,49.5,50.0,30.15,SE,135,0.0,0.0,99,0.00,,,0.00,Rainwise IP-100,2013-12-01 12:26:00,
2013-12-01 06:31:00,49.6,50.0,30.15,SE,135,0.0,0.0,99,0.00,,,0.00,Rainwise IP-100,2013-12-01 12:31:00,
2013-12-01 06:36:00,49.5,50.0,30.15,SE,135,0.0,0.0,99,0.00,,,0.00,Rainwise IP-100,2013-12-01 12:36:00,
2013-12-01 06:41:00,49.5,50.0,30.16,SE,135,0.0,0.0,99,0.00,,,0.00,Rainwise IP-100,2013-12-01 12:41:00,
2013-12-01 06:46:00,49.8,50.0,30.15,SE,135,0.0,0.0,99,0.00,,,0.00,Rainwise IP-100,2013-12-01 12:46:00,
2013-12-01 06:51:00,50.4,50.0,30.15,SE,135,0.0,1.0,99,0.00,,,0.00,Rainwise IP-100,2013-12-01 12:51:00,
2013-12-01 06:56:00,50.6,50.0,30.16,SE,135,0.0,0.0,100,0.00,,,0.00,Rainwise IP-100,2013-12-01 12:56:00,
2013-12-01 07:01:00,50.4,50.0,30.15,SE,135,0.0,0.0,100,0.00,,,0.00,Rainwise IP-100,2013-12-01 13:01:00,
2013-12-01 07:06:00,50.6,50.0,30.15,SE,135,1.4,1.4,100,0.00,,,0.00,Rainwise IP-100,2013-12-01 13:06:00,
2013-12-01 07:11:00,51.0,51.0,30.15,SE,135,1.2,1.2,100,0.00,,,0.00,Rainwise IP-100,2013-12-01 13:11:00,
2013-12-01 07:16:00,51.3,51.0,30.15,SE,135,0.0,1.0,100,0.00,,,0.00,Rainwise IP-100,2013-12-01 13:16:00,
2013-12-01 07:21:00,51.6,52.0,30.15,SE,135,1.4,1.4,100,0.00,,,0.00,Rainwise IP-100,2013-12-01 13:21:00,
2013-12-01 07:26:00,51.5,52.0,30.15,SE,135,0.0,1.0,100,0.00,,,0.00,Rainwise IP-100,2013-12-01 13:26:00,
2013-12-01 07:31:00,51.5,52.0,30.15,SE,135,0.0,0.0,100,0.00,,,0.00,Rainwise IP-100,2013-12-01 13:31:00,
2013-12-01 07:36:00,51.6,52.0,30.15,SE,135,0.0,0.0,100,0.00,,,0.00,Rainwise IP-100,2013-12-01 13:36:00,
2013-12-01 07:41:00,51.7,52.0,30.15,SE,135,0.0,0.0,100,0.00,,,0.00,Rainwise IP-100,2013-12-01 13:41:00,
2013-12-01 07:46:00,51.8,52.0,30.15,SE,135,0.0,0.0,100,0.00,,,0.00,Rainwise IP-100,2013-12-01 13:46:00,
2013-12-01 07:51:00,51.8,52.0,30.15,SE,135,0.0,0.0,100,0.00,,,0.00,Rainwise IP-100,2013-12-01 13:51:00,
2013-12-01 07:56:00,51.9,52.0,30.16,SE,135,0.0,0.0,100,0.00,,,0.00,Rainwise IP-100,2013-12-01 13:56:00,
2013-12-01 08:01:00,52.0,52.0,30.16,SE,135,0.0,0.0,100,0.00,,,0.00,Rainwise IP-100,2013-12-01 14:01:00,
2013-12-01 08:06:00,52.2,52.0,30.17,SE,135,0.0,0.0,100,0.00,,,0.00,Rainwise IP-100,2013-12-01 14:06:00,
2013-12-01 08:11:00,52.5,53.0,30.17,SE,135,0.0,0.0,100,0.00,,,0.00,Rainwise IP-100,2013-12-01 14:11:00,
2013-12-01 08:16:00,52.7,53.0,30.16,SE,135,0.0,0.0,100,0.00,,,0.00,Rainwise IP-100,2013-12-01 14:16:00,
2013-12-01 08:21:00,52.8,53.0,30.17,SE,135,1.6,2.0,100,0.00,,,0.00,Rainwise IP-100,2013-12-01 14:21:00,
2013-12-01 08:26:00,52.9,53.0,30.16,SE,135,0.0,1.0,100,0.00,,,0.00,Rainwise IP-100,2013-12-01 14:26:00,
2013-12-01 08:31:00,53.0,53.0,30.17,SE,135,0.0,1.0,100,0.00,,,0.00,Rainwise IP-100,2013-12-01 14:31:00,
2013-12-01 08:36:00,53.2,53.0,30.17,SE,135,0.0,1.0,100,0.00,,,0.00,Rainwise IP-100,2013-12-01 14:36:00,
2013-12-01 08:41:00,53.4,53.0,30.17,SE,135,1.2,2.0,100,0.00,,,0.00,Rainwise IP-100,2013-12-01 14:41:00,
2013-12-01 08:46:00,53.5,53.0,30.17,SE,135,0.0,1.0,100,0.00,,,0.00,Rainwise IP-100,2013-12-01 14:46:00,
2013-12-01 08:51:00,53.6,53.0,30.17,SE,135,1.6,3.0,100,0.00,,,0.00,Rainwise IP-100,2013-12-01 14:51:00,
2013-12-01 08:56:00,53.8,53.0,30.17,SSE,157,2.3,3.0,100,0.00,,,0.00,Rainwise IP-100,2013-12-01 14:56:00,
2013-12-01 09:01:00,54.0,54.0,30.18,SSE,157,1.2,2.0,100,0.00,,,0.00,Rainwise IP-100,2013-12-01 15:01:00,
2013-12-01 09:06:00,54.2,54.0,30.18,SSE,157,2.3,2.3,100,0.00,,,0.00,Rainwise IP-100,2013-12-01 15:06:00,
2013-12-01 09:11:00,54.4,54.0,30.17,SSE,157,1.6,2.0,100,0.00,,,0.00,Rainwise IP-100,2013-12-01 15:11:00,
2013-12-01 09:16:00,54.6,54.0,30.18,SSE,157,1.4,2.0,100,0.00,,,0.00,Rainwise IP-100,2013-12-01 15:16:00,
2013-12-01 09:21:00,55.0,55.0,30.17,SSE,157,2.6,3.0,100,0.00,,,0.00,Rainwise IP-100,2013-12-01 15:21:00,
2013-12-01 09:26:00,55.2,55.0,30.17,SE,135,2.8,4.0,100,0.00,,,0.00,Rainwise IP-100,2013-12-01 15:26:00,
2013-12-01 09:31:00,55.4,55.0,30.17,SE,135,0.0,4.0,100,0.00,,,0.00,Rainwise IP-100,2013-12-01 15:31:00,
2013-12-01 09:36:00,55.7,56.0,30.17,SSE,157,2.3,4.0,100,0.00,,,0.00,Rainwise IP-100,2013-12-01 15:36:00,
2013-12-01 09:41:00,55.9,56.0,30.17,ESE,112,0.0,3.0,99,0.00,,,0.00,Rainwise IP-100,2013-12-01 15:41:00,
2013-12-01 09:46:00,56.1,56.0,30.17,SSE,157,1.6,2.0,99,0.00,,,0.00,Rainwise IP-100,2013-12-01 15:46:00,
2013-12-01 09:51:00,56.3,55.0,30.17,SSE,157,0.0,4.0,98,0.00,,,0.00,Rainwise IP-100,2013-12-01 15:51:00,
2013-12-01 09:56:00,56.5,56.0,30.17,South,180,1.9,3.0,98,0.00,,,0.00,Rainwise IP-100,2013-12-01 15:56:00,
2013-12-01 10:01:00,56.8,56.0,30.17,SSE,157,3.0,3.0,99,0.00,,,0.00,Rainwise IP-100,2013-12-01 16:01:00,
2013-12-01 10:06:00,57.0,56.0,30.17,South,180,3.0,4.0,98,0.00,,,0.00,Rainwise IP-100,2013-12-01 16:06:00,
2013-12-01 10:11:00,57.4,57.0,30.18,SE,135,2.8,4.0,97,0.00,,,0.00,Rainwise IP-100,2013-12-01 16:11:00,
2013-12-01 10:16:00,57.9,57.0,30.18,South,180,3.3,5.0,97,0.00,,,0.00,Rainwise IP-100,2013-12-01 16:16:00,
2013-12-01 10:21:00,58.4,57.0,30.18,SSE,157,3.5,7.0,96,0.00,,,0.00,Rainwise IP-100,2013-12-01 16:21:00,
2013-12-01 10:26:00,59.0,57.0,30.18,SSW,202,2.3,5.0,94,0.00,,,0.00,Rainwise IP-100,2013-12-01 16:26:00,
2013-12-01 10:31:00,59.6,57.0,30.17,WSW,247,6.5,7.0,93,0.00,,,0.00,Rainwise IP-100,2013-12-01 16:31:00,
2013-12-01 10:36:00,60.1,57.0,30.17,SSW,202,3.3,9.0,92,0.00,,,0.00,Rainwise IP-100,2013-12-01 16:36:00,
2013-12-01 10:41:00,60.4,57.0,30.17,WSW,247,2.3,5.0,90,0.00,,,0.00,Rainwise IP-100,2013-12-01 16:41:00,
2013-12-01 10:46:00,60.9,57.0,30.16,SSW,202,2.8,6.0,88,0.00,,,0.00,Rainwise IP-100,2013-12-01 16:46:00,
2013-12-01 10:51:00,61.4,57.0,30.16,SSW,202,2.3,7.0,87,0.00,,,0.00,Rainwise IP-100,2013-12-01 16:51:00,
2013-12-01 10:56:00,61.7,57.0,30.16,SW,225,3.0,9.0,86,0.00,,,0.00,Rainwise IP-100,2013-12-01 16:56:00,
2013-12-01 11:01:00,61.8,57.0,30.16,South,180,5.1,7.0,86,0.00,,,0.00,Rainwise IP-100,2013-12-01 17:01:00,
2013-12-01 11:06:00,62.0,57.0,30.16,SSW,202,4.2,8.0,85,0.00,,,0.00,Rainwise IP-100,2013-12-01 17:06:00,
2013-12-01 11:11:00,62.2,57.0,30.15,SSW,202,7.0,10.0,85,0.00,,,0.00,Rainwise IP-100,2013-12-01 17:11:00,
2013-12-01 11:16:00,62.5,57.0,30.15,SSW,202,6.1,10.0,84,0.00,,,0.00,Rainwise IP-100,2013-12-01 17:16:00,
2013-12-01 11:21:00,63.0,58.0,30.15,SSE,157,6.8,8.0,84,0.00,,,0.00,Rainwise IP-100,2013-12-01 17:21:00,
2013-12-01 11:26:00,63.5,57.0,30.14,SSE,157,5.8,13.0,82,0.00,,,0.00,Rainwise IP-100,2013-12-01 17:26:00,
2013-12-01 11:31:00,63.9,58.0,30.14,WSW,247,4.4,9.0,81,0.00,,,0.00,Rainwise IP-100,2013-12-01 17:31:00,
2013-12-01 11:36:00,64.2,58.0,30.14,South,180,2.8,13.0,81,0.00,,,0.00,Rainwise IP-100,2013-12-01 17:36:00,
2013-12-01 11:41:00,64.2,57.0,30.13,SW,225,7.0,11.0,80,0.00,,,0.00,Rainwise IP-100,2013-12-01 17:41:00,
2013-12-01 11:46:00,64.2,57.0,30.13,WSW,247,7.2,10.0,80,0.00,,,0.00,Rainwise IP-100,2013-12-01 17:46:00,
2013-12-01 11:51:00,64.2,57.0,30.13,West,270,7.0,9.0,80,0.00,,,0.00,Rainwise IP-100,2013-12-01 17:51:00,
2013-12-01 11:56:00,64.1,57.0,30.13,SSW,202,7.0,12.0,79,0.00,,,0.00,Rainwise IP-100,2013-12-01 17:56:00,
2013-12-01 12:01:00,64.0,57.0,30.12,SSW,202,4.2,11.0,79,0.00,,,0.00,Rainwise IP-100,2013-12-01 18:01:00,
2013-12-01 12:06:00,64.3,57.0,30.12,SSW,202,5.4,10.0,79,0.00,,,0.00,Rainwise IP-100,2013-12-01 18:06:00,
2013-12-01 12:11:00,64.5,57.0,30.12,SW,225,4.7,10.0,78,0.00,,,0.00,Rainwise IP-100,2013-12-01 18:11:00,
2013-12-01 12:16:00,64.8,57.0,30.12,SSW,202,6.5,9.0,78,0.00,,,0.00,Rainwise IP-100,2013-12-01 18:16:00,
2013-12-01 12:21:00,65.1,57.0,30.12,SSE,157,2.8,11.0,77,0.00,,,0.00,Rainwise IP-100,2013-12-01 18:21:00,
2013-12-01 12:26:00,65.4,57.0,30.11,SSW,202,4.0,11.0,76,0.00,,,0.00,Rainwise IP-100,2013-12-01 18:26:00,
2013-12-01 12:31:00,65.7,57.0,30.12,South,180,3.7,12.0,76,0.00,,,0.00,Rainwise IP-100,2013-12-01 18:31:00,
2013-12-01 12:36:00,65.9,57.0,30.11,WSW,247,3.3,13.0,75,0.00,,,0.00,Rainwise IP-100,2013-12-01 18:36:00,
2013-12-01 12:41:00,66.0,57.0,30.10,SW,225,4.4,11.0,75,0.00,,,0.00,Rainwise IP-100,2013-12-01 18:41:00,
2013-12-01 12:46:00,66.2,58.0,30.10,SSW,202,5.8,10.0,75,0.00,,,0.00,Rainwise IP-100,2013-12-01 18:46:00,
2013-12-01 12:51:00,66.2,58.0,30.10,WSW,247,4.0,9.0,75,0.00,,,0.00,Rainwise IP-100,2013-12-01 18:51:00,
2013-12-01 12:56:00,66.1,57.0,30.10,SSW,202,3.7,10.0,75,0.00,,,0.00,Rainwise IP-100,2013-12-01 18:56:00,
2013-12-01 13:01:00,66.0,57.0,30.10,South,180,4.7,10.0,75,0.00,,,0.00,Rainwise IP-100,2013-12-01 19:01:00,
2013-12-01 13:06:00,65.9,57.0,30.09,SSW,202,6.5,9.0,75,0.00,,,0.00,Rainwise IP-100,2013-12-01 19:06:00,
2013-12-01 13:11:00,65.6,57.0,30.09,SSW,202,3.0,9.0,75,0.00,,,0.00,Rainwise IP-100,2013-12-01 19:11:00,
2013-12-01 13:16:00,65.5,57.0,30.08,SSW,202,5.8,9.0,76,0.00,,,0.00,Rainwise IP-100,2013-12-01 19:16:00,
2013-12-01 13:21:00,65.4,57.0,30.08,South,180,6.3,9.0,76,0.00,,,0.00,Rainwise IP-100,2013-12-01 19:21:00,
2013-12-01 13:26:00,65.3,57.0,30.08,South,180,5.6,11.0,76,0.00,,,0.00,Rainwise IP-100,2013-12-01 19:26:00,
2013-12-01 13:31:00,65.3,57.0,30.07,SSW,202,4.2,10.0,76,0.00,,,0.00,Rainwise IP-100,2013-12-01 19:31:00,
2013-12-01 13:36:00,65.2,57.0,30.06,SW,225,4.0,9.0,76,0.00,,,0.00,Rainwise IP-100,2013-12-01 19:36:00,
2013-12-01 13:38:00,65.2,57.0,30.06,SSW,202,6.1,9.0,76,0.00,,,0.00,Rainwise IP-100,2013-12-01 19:38:00,
2013-12-01 13:43:00,65.1,57.0,30.07,SSW,202,3.3,12.0,76,0.00,,,0.00,Rainwise IP-100,2013-12-01 19:43:00,
2013-12-01 13:48:00,65.1,57.0,30.07,SSE,157,3.7,11.0,76,0.00,,,0.00,Rainwise IP-100,2013-12-01 19:48:00,
2013-12-01 13:53:00,65.1,57.0,30.06,SW,225,2.8,10.0,76,0.00,,,0.00,Rainwise IP-100,2013-12-01 19:53:00,
2013-12-01 13:58:00,65.2,57.0,30.06,SW,225,3.5,9.0,76,0.00,,,0.00,Rainwise IP-100,2013-12-01 19:58:00,
2013-12-01 14:03:00,65.2,57.0,30.06,WSW,247,5.1,9.0,76,0.00,,,0.00,Rainwise IP-100,2013-12-01 20:03:00,
2013-12-01 14:08:00,65.3,57.0,30.06,SSW,202,4.2,9.0,76,0.00,,,0.00,Rainwise IP-100,2013-12-01 20:08:00,
2013-12-01 14:13:00,65.4,57.0,30.05,SSW,202,4.2,8.0,76,0.00,,,0.00,Rainwise IP-100,2013-12-01 20:13:00,
2013-12-01 14:18:00,65.6,57.0,30.05,West,270,4.4,8.0,75,0.00,,,0.00,Rainwise IP-100,2013-12-01 20:18:00,
2013-12-01 14:23:00,65.9,57.0,30.05,WSW,247,3.7,12.0,75,0.00,,,0.00,Rainwise IP-100,2013-12-01 20:23:00,
2013-12-01 14:28:00,66.1,57.0,30.05,SSW,202,5.6,8.0,74,0.00,,,0.00,Rainwise IP-100,2013-12-01 20:28:00,
2013-12-01 14:33:00,66.2,57.0,30.04,WSW,247,5.4,11.0,74,0.00,,,0.00,Rainwise IP-100,2013-12-01 20:33:00,
2013-12-01 14:38:00,66.2,57.0,30.04,WSW,247,4.0,11.0,74,0.00,,,0.00,Rainwise IP-100,2013-12-01 20:38:00,
2013-12-01 14:43:00,66.2,57.0,30.04,West,270,7.0,9.0,74,0.00,,,0.00,Rainwise IP-100,2013-12-01 20:43:00,
2013-12-01 14:48:00,66.2,57.0,30.04,SW,225,2.3,9.0,74,0.00,,,0.00,Rainwise IP-100,2013-12-01 20:48:00,
2013-12-01 14:53:00,66.2,57.0,30.03,SSW,202,3.0,8.0,73,0.00,,,0.00,Rainwise IP-100,2013-12-01 20:53:00,
2013-12-01 14:58:00,66.2,57.0,30.03,WSW,247,2.6,8.0,73,0.00,,,0.00,Rainwise IP-100,2013-12-01 20:58:00,
2013-12-01 15:03:00,66.2,57.0,30.03,SW,225,4.4,4.4,74,0.00,,,0.00,Rainwise IP-100,2013-12-01 21:03:00,
2013-12-01 15:08:00,66.2,57.0,30.03,SSW,202,5.1,7.0,74,0.00,,,0.00,Rainwise IP-100,2013-12-01 21:08:00,
2013-12-01 15:13:00,66.2,57.0,30.03,SW,225,2.6,5.0,74,0.00,,,0.00,Rainwise IP-100,2013-12-01 21:13:00,
2013-12-01 15:18:00,66.2,57.0,30.03,SW,225,7.0,7.0,74,0.00,,,0.00,Rainwise IP-100,2013-12-01 21:18:00,
2013-12-01 15:23:00,66.3,57.0,30.03,SSW,202,4.2,8.0,73,0.00,,,0.00,Rainwise IP-100,2013-12-01 21:23:00,
2013-12-01 15:28:00,66.2,57.0,30.02,SSW,202,3.5,8.0,73,0.00,,,0.00,Rainwise IP-100,2013-12-01 21:28:00,
2013-12-01 15:33:00,66.2,57.0,30.02,SSW,202,3.3,7.0,73,0.00,,,0.00,Rainwise IP-100,2013-12-01 21:33:00,
2013-12-01 15:38:00,66.2,57.0,30.02,SSW,202,2.8,8.0,73,0.00,,,0.00,Rainwise IP-100,2013-12-01 21:38:00,
2013-12-01 15:43:00,66.1,57.0,30.02,SSW,202,3.7,5.0,74,0.00,,,0.00,Rainwise IP-100,2013-12-01 21:43:00,
2013-12-01 15:48:00,66.0,57.0,30.02,SSW,202,3.5,6.0,74,0.00,,,0.00,Rainwise IP-100,2013-12-01 21:48:00,
2013-12-01 15:53:00,65.8,57.0,30.01,SW,225,3.0,7.0,74,0.00,,,0.00,Rainwise IP-100,2013-12-01 21:53:00,
2013-12-01 15:58:00,65.6,57.0,30.01,SSW,202,3.3,4.0,74,0.00,,,0.00,Rainwise IP-100,2013-12-01 21:58:00,
2013-12-01 16:03:00,65.4,57.0,30.01,South,180,4.4,7.0,75,0.00,,,0.00,Rainwise IP-100,2013-12-01 22:03:00,
2013-12-01 16:08:00,65.3,57.0,30.01,SW,225,0.0,4.0,75,0.00,,,0.00,Rainwise IP-100,2013-12-01 22:08:00,
2013-12-01 16:13:00,65.2,57.0,30.02,SSW,202,3.0,4.0,75,0.00,,,0.00,Rainwise IP-100,2013-12-01 22:13:00,
2013-12-01 16:18:00,65.0,57.0,30.01,SSW,202,3.7,4.0,76,0.00,,,0.00,Rainwise IP-100,2013-12-01 22:18:00,
2013-12-01 16:23:00,64.8,56.0,30.01,SSW,202,1.9,4.0,76,0.00,,,0.00,Rainwise IP-100,2013-12-01 22:23:00,
2013-12-01 16:28:00,64.7,56.0,30.02,SSW,202,1.4,3.0,76,0.00,,,0.00,Rainwise IP-100,2013-12-01 22:28:00,
2013-12-01 16:33:00,64.6,56.0,30.02,SW,225,2.6,3.0,76,0.00,,,0.00,Rainwise IP-100,2013-12-01 22:33:00,
2013-12-01 16:38:00,64.5,57.0,30.02,WSW,247,1.6,3.0,77,0.00,,,0.00,Rainwise IP-100,2013-12-01 22:38:00,
2013-12-01 16:43:00,64.4,57.0,30.02,West,270,3.5,3.5,77,0.00,,,0.00,Rainwise IP-100,2013-12-01 22:43:00,
2013-12-01 16:48:00,64.3,56.0,30.02,West,270,3.0,3.0,77,0.00,,,0.00,Rainwise IP-100,2013-12-01 22:48:00,
2013-12-01 16:53:00,64.2,57.0,30.02,WSW,247,2.1,4.0,78,0.00,,,0.00,Rainwise IP-100,2013-12-01 22:53:00,
2013-12-01 16:58:00,64.2,56.0,30.02,WSW,247,1.9,3.0,77,0.00,,,0.00,Rainwise IP-100,2013-12-01 22:58:00,
2013-12-01 17:03:00,64.1,56.0,30.02,WSW,247,2.1,3.0,77,0.00,,,0.00,Rainwise IP-100,2013-12-01 23:03:00,
2013-12-01 17:08:00,64.0,57.0,30.02,WSW,247,2.3,3.0,78,0.00,,,0.00,Rainwise IP-100,2013-12-01 23:08:00,
2013-12-01 17:13:00,63.8,56.0,30.02,WSW,247,1.2,3.0,78,0.00,,,0.00,Rainwise IP-100,2013-12-01 23:13:00,
2013-12-01 17:18:00,63.7,56.0,30.02,WSW,247,0.0,2.0,78,0.00,,,0.00,Rainwise IP-100,2013-12-01 23:18:00,
2013-12-01 17:23:00,63.5,56.0,30.02,WSW,247,0.0,1.0,78,0.00,,,0.00,Rainwise IP-100,2013-12-01 23:23:00,
2013-12-01 17:28:00,63.3,56.0,30.01,WSW,247,0.0,1.0,78,0.00,,,0.00,Rainwise IP-100,2013-12-01 23:28:00,
2013-12-01 17:33:00,63.0,56.0,30.00,WSW,247,0.0,0.0,79,0.00,,,0.00,Rainwise IP-100,2013-12-01 23:33:00,
2013-12-01 17:38:00,62.9,56.0,30.00,WSW,247,0.0,1.0,79,0.00,,,0.00,Rainwise IP-100,2013-12-01 23:38:00,
2013-12-01 17:43:00,62.7,56.0,30.01,WSW,247,1.2,1.2,79,0.00,,,0.00,Rainwise IP-100,2013-12-01 23:43:00,
2013-12-01 17:48:00,62.6,56.0,30.00,SW,225,2.3,2.3,80,0.00,,,0.00,Rainwise IP-100,2013-12-01 23:48:00,
2013-12-01 17:53:00,62.6,56.0,30.01,SW,225,1.9,2.0,80,0.00,,,0.00,Rainwise IP-100,2013-12-01 23:53:00,
2013-12-01 17:58:00,62.5,56.0,30.00,WSW,247,3.0,3.0,80,0.00,,,0.00,Rainwise IP-100,2013-12-01 23:58:00,
2013-12-01 18:03:00,62.6,56.0,30.01,WSW,247,1.9,3.0,80,0.00,,,0.00,Rainwise IP-100,2013-12-02 00:03:00,
2013-12-01 18:08:00,62.6,56.0,30.01,West,270,1.2,4.0,80,0.00,,,0.00,Rainwise IP-100,2013-12-02 00:08:00,
2013-12-01 18:13:00,62.6,56.0,30.02,WNW,292,1.9,2.0,80,0.00,,,0.00,Rainwise IP-100,2013-12-02 00:13:00,
2013-12-01 18:18:00,62.6,56.0,30.02,WNW,292,0.0,2.0,80,0.00,,,0.00,Rainwise IP-100,2013-12-02 00:18:00,
2013-12-01 18:23:00,62.4,56.0,30.02,WNW,292,0.0,0.0,80,0.00,,,0.00,Rainwise IP-100,2013-12-02 00:23:00,
2013-12-01 18:28:00,62.1,56.0,30.02,WNW,292,1.2,2.0,81,0.00,,,0.00,Rainwise IP-100,2013-12-02 00:28:00,
2013-12-01 18:33:00,61.8,56.0,30.02,WNW,292,0.0,1.0,81,0.00,,,0.00,Rainwise IP-100,2013-12-02 00:33:00,
2013-12-01 18:38:00,61.3,55.0,30.01,WNW,292,0.0,0.0,82,0.00,,,0.00,Rainwise IP-100,2013-12-02 00:38:00,
2013-12-01 18:43:00,60.7,54.0,30.02,WNW,292,0.0,1.0,82,0.00,,,0.00,Rainwise IP-100,2013-12-02 00:43:00,
2013-12-01 18:48:00,60.3,55.0,30.00,WNW,292,0.0,1.0,84,0.00,,,0.00,Rainwise IP-100,2013-12-02 00:48:00,
2013-12-01 18:53:00,60.1,55.0,30.01,WNW,292,1.6,2.0,84,0.00,,,0.00,Rainwise IP-100,2013-12-02 00:53:00,
2013-12-01 18:58:00,59.9,55.0,30.01,WNW,292,0.0,2.0,85,0.00,,,0.00,Rainwise IP-100,2013-12-02 00:58:00,
2013-12-01 19:03:00,59.8,55.0,30.02,WNW,292,0.0,0.0,86,0.00,,,0.00,Rainwise IP-100,2013-12-02 01:03:00,
2013-12-01 19:08:00,59.7,55.0,30.02,WNW,292,0.0,2.0,86,0.00,,,0.00,Rainwise IP-100,2013-12-02 01:08:00,
2013-12-01 19:13:00,60.0,56.0,30.02,SW,225,2.8,4.0,86,0.00,,,0.00,Rainwise IP-100,2013-12-02 01:13:00,
2013-12-01 19:18:00,60.4,56.0,30.02,WSW,247,0.0,4.0,85,0.00,,,0.00,Rainwise IP-100,2013-12-02 01:18:00,
2013-12-01 19:23:00,60.7,56.0,30.01,SW,225,1.2,3.0,85,0.00,,,0.00,Rainwise IP-100,2013-12-02 01:23:00,
2013-12-01 19:28:00,60.7,56.0,30.01,WSW,247,2.6,4.0,85,0.00,,,0.00,Rainwise IP-100,2013-12-02 01:28:00,
2013-12-01 19:33:00,60.7,56.0,30.00,SSW,202,1.6,4.0,85,0.00,,,0.00,Rainwise IP-100,2013-12-02 01:33:00,
2013-12-01 19:38:00,60.6,56.0,30.01,SSW,202,0.0,4.0,85,0.00,,,0.00,Rainwise IP-100,2013-12-02 01:38:00,
2013-12-01 19:43:00,60.6,56.0,30.01,WSW,247,2.6,3.0,85,0.00,,,0.00,Rainwise IP-100,2013-12-02 01:43:00,
2013-12-01 19:48:00,60.7,56.0,30.00,SW,225,2.3,5.0,86,0.00,,,0.00,Rainwise IP-100,2013-12-02 01:48:00,
2013-12-01 19:53:00,60.7,56.0,30.00,WSW,247,1.9,4.0,86,0.00,,,0.00,Rainwise IP-100,2013-12-02 01:53:00,
2013-12-01 19:58:00,60.7,56.0,29.99,SW,225,2.3,3.0,86,0.00,,,0.00,Rainwise IP-100,2013-12-02 01:58:00,
2013-12-01 20:03:00,60.5,56.0,29.99,SW,225,2.3,4.0,86,0.00,,,0.00,Rainwise IP-100,2013-12-02 02:03:00,
2013-12-01 20:08:00,60.5,56.0,30.00,SW,225,1.9,5.0,86,0.00,,,0.00,Rainwise IP-100,2013-12-02 02:08:00,
2013-12-01 20:13:00,60.6,56.0,29.99,WSW,247,3.7,5.0,86,0.00,,,0.00,Rainwise IP-100,2013-12-02 02:13:00,
2013-12-01 20:18:00,60.6,56.0,29.99,SSW,202,4.0,6.0,86,0.00,,,0.00,Rainwise IP-100,2013-12-02 02:18:00,
2013-12-01 20:23:00,60.6,56.0,29.99,SSW,202,3.0,6.0,86,0.00,,,0.00,Rainwise IP-100,2013-12-02 02:23:00,
2013-12-01 20:28:00,60.6,56.0,29.99,WSW,247,4.0,6.0,86,0.00,,,0.00,Rainwise IP-100,2013-12-02 02:28:00,
2013-12-01 20:33:00,60.6,56.0,30.00,West,270,4.2,5.0,86,0.00,,,0.00,Rainwise IP-100,2013-12-02 02:33:00,
2013-12-01 20:38:00,60.6,56.0,30.00,West,270,3.0,4.0,86,0.00,,,0.00,Rainwise IP-100,2013-12-02 02:38:00,
2013-12-01 20:43:00,60.5,56.0,30.00,WNW,292,1.9,3.0,86,0.00,,,0.00,Rainwise IP-100,2013-12-02 02:43:00,
2013-12-01 20:48:00,60.2,56.0,30.01,WNW,292,1.2,2.0,86,0.00,,,0.00,Rainwise IP-100,2013-12-02 02:48:00,
2013-12-01 20:53:00,60.0,56.0,30.00,WNW,292,2.1,2.1,86,0.00,,,0.00,Rainwise IP-100,2013-12-02 02:53:00,
2013-12-01 20:58:00,59.6,55.0,30.00,WNW,292,2.6,3.0,87,0.00,,,0.00,Rainwise IP-100,2013-12-02 02:58:00,
2013-12-01 21:03:00,59.4,55.0,30.00,WNW,292,1.2,3.0,87,0.00,,,0.00,Rainwise IP-100,2013-12-02 03:03:00,
2013-12-01 21:08:00,59.4,56.0,30.00,WNW,292,0.0,2.0,88,0.00,,,0.00,Rainwise IP-100,2013-12-02 03:08:00,
2013-12-01 21:13:00,59.3,55.0,29.99,WSW,247,2.8,2.8,88,0.00,,,0.00,Rainwise IP-100,2013-12-02 03:13:00,
2013-12-01 21:18:00,59.1,55.0,30.00,WSW,247,2.8,3.0,88,0.00,,,0.00,Rainwise IP-100,2013-12-02 03:18:00,
2013-12-01 21:23:00,59.3,55.0,30.00,West,270,1.6,3.0,88,0.00,,,0.00,Rainwise IP-100,2013-12-02 03:23:00,
2013-12-01 21:28:00,59.3,55.0,29.99,SSW,202,2.8,4.0,88,0.00,,,0.00,Rainwise IP-100,2013-12-02 03:28:00,
2013-12-01 21:33:00,59.2,55.0,29.98,SSE,157,3.0,5.0,88,0.00,,,0.00,Rainwise IP-100,2013-12-02 03:33:00,
2013-12-01 21:38:00,59.1,55.0,29.97,SW,225,1.6,4.0,88,0.00,,,0.00,Rainwise IP-100,2013-12-02 03:38:00,
2013-12-01 21:43:00,59.1,56.0,29.98,WSW,247,3.0,3.0,89,0.00,,,0.00,Rainwise IP-100,2013-12-02 03:43:00,
2013-12-01 21:48:00,59.1,55.0,29.98,West,270,2.6,4.0,88,0.00,,,0.00,Rainwise IP-100,2013-12-02 03:48:00,
2013-12-01 21:53:00,59.3,55.0,29.99,WSW,247,4.0,5.0,88,0.00,,,0.00,Rainwise IP-100,2013-12-02 03:53:00,
2013-12-01 21:58:00,59.5,56.0,29.99,West,270,4.0,4.0,88,0.00,,,0.00,Rainwise IP-100,2013-12-02 03:58:00,
2013-12-01 22:03:00,59.4,56.0,29.99,WSW,247,2.1,4.0,88,0.00,,,0.00,Rainwise IP-100,2013-12-02 04:03:00,
2013-12-01 22:08:00,59.2,55.0,29.99,West,270,2.6,3.0,88,0.00,,,0.00,Rainwise IP-100,2013-12-02 04:08:00,
2013-12-01 22:13:00,59.0,55.0,30.00,WSW,247,2.1,3.0,88,0.00,,,0.00,Rainwise IP-100,2013-12-02 04:13:00,
2013-12-01 22:18:00,58.8,55.0,30.00,WSW,247,0.0,3.0,88,0.00,,,0.00,Rainwise IP-100,2013-12-02 04:18:00,
2013-12-01 22:23:00,58.7,56.0,30.00,WSW,247,0.0,1.0,89,0.00,,,0.00,Rainwise IP-100,2013-12-02 04:23:00,
2013-12-01 22:28:00,58.5,56.0,29.99,WSW,247,0.0,0.0,89,0.00,,,0.00,Rainwise IP-100,2013-12-02 04:28:00,
2013-12-01 22:33:00,58.2,55.0,30.00,WSW,247,0.0,0.0,89,0.00,,,0.00,Rainwise IP-100,2013-12-02 04:33:00,
2013-12-01 22:38:00,57.9,55.0,29.99,WSW,247,0.0,2.0,89,0.00,,,0.00,Rainwise IP-100,2013-12-02 04:38:00,
2013-12-01 22:43:00,57.5,54.0,29.99,WSW,247,0.0,2.0,90,0.00,,,0.00,Rainwise IP-100,2013-12-02 04:43:00,
2013-12-01 22:48:00,57.4,54.0,30.00,NNE,22,3.5,3.5,90,0.00,,,0.00,Rainwise IP-100,2013-12-02 04:48:00,
2013-12-01 22:53:00,57.3,54.0,30.00,North,360,2.1,5.0,91,0.00,,,0.00,Rainwise IP-100,2013-12-02 04:53:00,
2013-12-01 22:58:00,57.3,54.0,30.00,NNE,22,0.0,4.0,91,0.00,,,0.00,Rainwise IP-100,2013-12-02 04:58:00,
2013-12-01 23:01:00,57.2,54.0,30.00,North,360,0.0,4.0,91,0.00,,,0.00,Rainwise IP-100,2013-12-02 05:01:00,
2013-12-01 23:02:00,57.2,54.0,30.00,North,360,0.0,4.0,91,0.00,,,0.00,Rainwise IP-100,2013-12-02 05:02:00,
2013-12-01 23:07:00,56.9,54.0,29.99,North,360,1.4,1.4,92,0.00,,,0.00,Rainwise IP-100,2013-12-02 05:07:00,
2013-12-01 23:12:00,56.7,54.0,29.99,North,360,0.0,2.0,92,0.00,,,0.00,Rainwise IP-100,2013-12-02 05:12:00,
2013-12-01 23:17:00,56.5,54.0,29.99,WNW,292,1.2,2.0,92,0.00,,,0.00,Rainwise IP-100,2013-12-02 05:17:00,
2013-12-01 23:22:00,56.6,54.0,29.99,WNW,292,0.0,3.0,92,0.00,,,0.00,Rainwise IP-100,2013-12-02 05:22:00,
2013-12-01 23:27:00,57.0,55.0,29.99,WNW,292,1.2,2.0,93,0.00,,,0.00,Rainwise IP-100,2013-12-02 05:27:00,
2013-12-01 23:32:00,57.2,55.0,29.99,WNW,292,0.0,1.0,93,0.00,,,0.00,Rainwise IP-100,2013-12-02 05:32:00,
2013-12-01 23:37:00,56.9,55.0,29.98,WNW,292,0.0,0.0,93,0.00,,,0.00,Rainwise IP-100,2013-12-02 05:37:00,
2013-12-01 23:42:00,56.5,54.0,29.98,WNW,292,1.2,1.2,92,0.00,,,0.00,Rainwise IP-100,2013-12-02 05:42:00,
2013-12-01 23:47:00,56.3,53.0,29.98,WNW,292,0.0,1.0,92,0.00,,,0.00,Rainwise IP-100,2013-12-02 05:47:00,
2013-12-01 23:52:00,56.3,54.0,29.97,WSW,247,2.3,3.0,93,0.00,,,0.00,Rainwise IP-100,2013-12-02 05:52:00,
2013-12-01 23:57:00,56.4,54.0,29.97,WSW,247,3.3,4.0,93,0.00,,,0.00,Rainwise IP-100,2013-12-02 05:57:00,